This is the latest recevied weather packets stored in our database for station/object E25WMA-7. If no packets are shown the sender has not sent any weather packets the latest 10 day(s).
| Time | Temp. | Humidity | Pressure | Rain* | Wind** | Luminosity | Snow |
|---|---|---|---|---|---|---|---|
| 1788519251 | 37.22° C | 51% | 1001 hPa | - | - | 0 W/m² | - |
| 1788518328 | 37.22° C | 51% | 1000 hPa | - | - | 0 W/m² | - |
| 1788517407 | 37.22° C | 51% | 1000 hPa | - | - | 0 W/m² | - |
| 1788516484 | 37.22° C | 52% | 1000 hPa | - | - | 0 W/m² | - |
| 1788515562 | 36.67° C | 52% | 1000 hPa | - | - | 0 W/m² | - |
| 1788514642 | 37.22° C | 52% | 1000 hPa | - | - | 0 W/m² | - |
| 1788513718 | 36.11° C | 54% | 999 hPa | - | - | 0 W/m² | - |
| 1788512796 | 36.11° C | 54% | 999 hPa | - | - | 0 W/m² | - |
| 1788511874 | 35.56° C | 54% | 1000 hPa | - | - | 0 W/m² | - |
| 1788510952 | 34.44° C | 57% | 999 hPa | - | - | 0 W/m² | - |
| 1788510030 | 35.56° C | 55% | 999 hPa | - | - | 0 W/m² | - |
| 1788509108 | 35.56° C | 54% | 999 hPa | - | - | 0 W/m² | - |
| 1788508186 | 36.11° C | 52% | 1000 hPa | - | - | 0 W/m² | - |
| 1788507264 | 36.11° C | 52% | 1000 hPa | - | - | 0 W/m² | - |
| 1788506342 | 37.22° C | 48% | 1000 hPa | - | - | 0 W/m² | - |
| 1788505421 | 37.78° C | 48% | 1000 hPa | - | - | 0 W/m² | - |
| 1788504498 | 37.22° C | 47% | 1000 hPa | - | - | 0 W/m² | - |
| 1788503576 | 37.22° C | 47% | 1001 hPa | - | - | 0 W/m² | - |
| 1788502653 | 37.22° C | 48% | 1001 hPa | - | - | 0 W/m² | - |
| 1788501738 | 37.22° C | 46% | 1001 hPa | - | - | 0 W/m² | - |
| 1788500809 | 36.67° C | 46% | 1001 hPa | - | - | 0 W/m² | - |
| 1788499887 | 36.11° C | 47% | 1001 hPa | - | - | 0 W/m² | - |
| 1788498965 | 36.11° C | 48% | 1002 hPa | - | - | 0 W/m² | - |
| 1788498045 | 35° C | 50% | 1002 hPa | - | - | 0 W/m² | - |
| 1788497121 | 35° C | 50% | 1002 hPa | - | - | 0 W/m² | - |
* Rain since midnight (hover to see other rain measurements)
** Current wind speed in m/s (hover to see current wind gust speed)